User: anonymous   Login
Location: Deuil
(48.9767°N, 2.3272°E)
Time: 00:41:05
(UTC+00:00)
Language:

FENGYUN 1C DEB - Orbit

View from above orbital plane
View from above orbital plane
View from above satellite
View from above satellite

Ground track
Ground track

The orbit data is extracted from the following two-line orbital elements,

1 29790U 99025CG  22226.39723409  .00000359  00000-0  15697-3 0  9991
2 29790  99.0202 151.6381 0082564  99.7683 261.2833 14.28266612811400
Epoch (UTC): 14 August 2022 09:32:01
Eccentricity: 0.0082564
inclination: 99.0202°
perigee height: 738 km
apogee height: 857 km
right ascension of ascending node: 151.6381°
argument of perigee: 99.7683°
revolutions per day: 14.28266612
mean anomaly at epoch: 261.2833°
orbit number at epoch: 81140

The dashed part of the orbit path shows where the satellite is in the earth's shadow,  

DLR